AirNav   Air Wisconsin Up To $57,000 Bonus
 
 1462 users online  

01MO Highway Patrol Troop C Headquarters Heliport
Town And Country, Missouri, USA

GOING TO TOWN AND COUNTRY?


FAA INFORMATION EFFECTIVE 28 JANUARY 2021

Location

FAA Identifier: 01MO
Lat/Long: 38-38-30.1890N 090-29-03.4330W
38-38.503150N 090-29.057217W
38.6417192,-90.4842869
(estimated)
Elevation: 575 ft. / 175 m (estimated)
Variation: 02E (1985)
From city: 2 miles W of TOWN AND COUNTRY, MO
Time zone: UTC -6 (UTC -5 during Daylight Saving Time)
Zip code: 63141

Heliport Operations

Heliport use: Private use. Permission required prior to landing
Control tower: no
ARTCC: KANSAS CITY CENTER
FSS: SAINT LOUIS FLIGHT SERVICE STATION
Attendance: CONTINUOUS
Wind indicator: yes
Segmented circle: no

Heliport Communications

UNICOM: 122.95
WX ASOS at SUS (8 nm W): 134.8 (314-890-7255)
WX ASOS at STL (8 nm NE): 125.025 (314-890-4790)
WX ASOS at CPS (16 nm E): PHONE 618-332-0001
WX ASOS at SET (17 nm N): 118.075 (636-250-4590)

Nearby radio navigation aids

VOR radial/distance  VOR name  Freq  Var
STLr179/13.1ST LOUIS VORTAC117.4001E
FTZr093/23.0FORISTELL VORTAC110.8005E
TOYr254/27.1TROY VORTAC116.0004E

 
NDB name  Hdg/Dist  Freq  Var  ID
EAVES127/3.622701WFZ ..-. --..
SNOOP090/13.232601WSU ... ..-
CIVIC MEMORIAL234/25.026301WCVM -.-. ...- --

Heliport Services

Airframe service: NONE
Powerplant service: NONE

Runway Information

Helipad H1

Dimensions: 75 x 75 ft. / 23 x 23 m
Surface: concrete
Latitude: 38-38.503167N
Longitude: 090-29.057167W
Elevation: 575.0 ft.
Traffic pattern: leftleft

Heliport Ownership and Management from official FAA records

Ownership: Privately-owned
Owner: CPT D E BUSCHMANN
599 SOUTH MASON ROAD
ST LOUIS, MO 63141
Phone 573-434-5500
Manager: SGT J W RHODUS
599 SOUTH MASON ROAD
ST LOUIS, MO 63141
Phone 573-340-4034

Heliport Operational Statistics

Aircraft based on the field: 1
Helicopters: 1
    

Additional Remarks

A52-H1 LGTD/MARKED-300' TWR & PATROL BLDG. SE OF PAD.
FOR CD CTC ST LOUIS APCH AT 314-890-1018.

Instrument Procedures

There are no published instrument procedures at 01MO.

Some nearby airports with instrument procedures:

1H0 - Creve Coeur Airport (5 nm N)
KSUS - Spirit of St Louis Airport (8 nm W)
KSTL - St Louis Lambert International Airport (8 nm NE)
KCPS - St Louis Downtown Airport (16 nm E)
KSET - St Charles County Smartt Airport (17 nm N)
 
Loc | Ops | Rwys | IFR | FBO | Links
Com | Nav | Svcs | Stats | Notes
Area around 01MO (Highway Patrol Troop C Headquarters Heliport)
 
Road maps at: MapQuest Bing Google
 
Aerial photo
No photo
 
Sectional chart

 
Airport distance calculator
Flying to Highway Patrol Troop C Headquarters Heliport? Find the distance to fly.

From to 01MO

Sunrise and sunset
Times for 24-Feb-2021
 Local
(UTC-6)
 Zulu
(UTC)
Morning civil twilight06:1512:15
Sunrise06:4212:42
Sunset17:4823:48
Evening civil twilight18:1500:15

Current date and time
Zulu (UTC)  24-Feb-2021 17:57:47
Local (UTC-6)  24-Feb-2021 11:57:47
 
METAR
KSUS 
8nm W 
241754Z 34012KT 10SM CLR 14/01 A2997 RMK AO2 SLP148 T01440006 10150 20061 51026
KSTL 
9nm NE 
241751Z 34013G20KT 10SM FEW200 FEW250 14/03 A2997 RMK AO2 SLP148 T01440028 10144 20083 51029
KCPS 
16nm E 
241753Z 32013G20KT 10SM CLR 14/03 A2996 RMK AO2 SLP147 T01440028 10144 20072 53029
KSET 
18nm N 
241754Z AUTO 31010G24KT 10SM CLR 13/01 A2997 RMK AO2 SLP149 T01330011 10139 20017 53029
TAF
KSUS 
8nm W 
232058Z 2321/2418 17007KT P6SM SKC FM240400 18009KT P6SM SCT150 WS015/21040KT FM241000 26007KT P6SM BKN050
KSTL 
9nm NE 
232058Z 2321/2424 17007KT P6SM SKC FM240400 18009KT P6SM SCT150 WS015/21040KT FM241000 26007KT P6SM BKN050 FM241800 31010G17KT P6SM BKN100
KCPS 
16nm E 
241120Z 2412/2512 23006KT P6SM BKN100 FM241800 32012G18KT P6SM FEW250 FM250500 35010KT P6SM BKN025 FM250800 35007KT P6SM BKN060
NOTAMs
Click for the latest NOTAMs
NOTAMs are issued by the DoD/FAA and will open in a separate window not controlled by AirNav.

 

 
 

Would you like to see your business listed on this page?

 If your business provides an interesting product or service to pilots, flight crews, aircraft, or users of the Highway Patrol Troop C Headquarters Heliport, you should consider listing it here.  To start the listing process, click on the button below
 
Add a business
 

Other Pages about Highway Patrol Troop C Headquarters Heliport

Update a link
 
Copyright © AirNav, LLC. All rights reserved. Privacy Policy  Contact